Location: Newark
(42.9260°N, 89.3850°W)
Time: 02:59:25
(UTC+00:00)

STARLINK 1049 - Pass Details

Date: 12 December 2019
Orbit: 348 x 351 km, 53.0° (Epoch: 19 January)

Event Time Altitude Azimuth Distance (km) Brightness Sun altitude
Exits shadow 10:14:58 - 108° (ESE) 1,680 7.0 -32.8°
Enters shadow 11:11:31 -65° 313° (NW) 12,000 10.4 -22.5°
Sets 11:51:08 0° 160° (SSE) 2,192 7.2 -15.5°
